Flag for U.S.A. Weather past 2 weeks in Corpus Christi, Texas, U.S.A.

Now
84 °F

Passing clouds.


Feels Like: 91 °F
Forecast: 74 / 93 °F
Wind: 16 mph from Southeast

Location: Corpus Christi International Airport

Current Time: Jul 24, 2014 at 9:21:49 PM

Latest Report: Jul 24, 2014 at 8:51 PM


Visibility: 10 mi

Pressure: 29.95 "Hg

Humidity: 72%

Dew point: 74 °F

Location of Corpus ChristiLocation

Historic Weather in Corpus Christi — Graph

°F

Corpus Christi temperature yesterday

Maximum temperature yesterday: 95 °F (at 1:51 PM)
Minimum temperature yesterday: 78 °F (at 4:58 AM)
Average temperature yesterday: 87 °F

Past Weeks' High & Low Weather Summary

 TemperatureHumidityPressure
High97 °F (Jul 14, 2:51 PM)97% (Jul 12, 2:51 AM)30.14 "Hg (Jul 12, 2:51 AM)
Low70 °F (Jul 12, 4:51 AM)40% (Jul 14, 2:51 PM)29.78 "Hg (Jul 17, 5:51 PM)
Average84 °F75%29.97 "Hg
* Reported Jul 9 7:51 PM — Jul 24 7:51 PM, Corpus Christi, Weather by CustomWeather, © 2014

Note: Actual official high and low records may vary slightly from our data, if they occured in-between our weather recording intervals... More about our weather records

Advertising

Corpus Christi weather history for previous 24 hours

 ConditionsComfort  
Time TempWeatherWind HumidityBarometerVisibility
7:51 PM
Jul 24
87 °FBroken clouds.15 mph59%29.93 "Hg10 mi
6:51 PM91 °FPartly sunny.12 mph47%29.92 "Hg10 mi
5:51 PM90 °FPartly sunny.12 mph50%29.93 "Hg10 mi
4:51 PM92 °FPartly sunny.15 mph44%29.93 "Hg10 mi
3:51 PM93 °FPartly sunny.10 mph47%29.94 "Hg10 mi
2:51 PM89 °FThundershowers. Broken clouds.20 mph50%29.96 "Hg10 mi
1:51 PM95 °FThundershowers. Broken clouds.15 mph44%29.96 "Hg10 mi
12:51 PM94 °FBroken clouds.3 mph48%29.98 "Hg10 mi
11:51 AM90 °FBroken clouds.No wind54%30.01 "Hg10 mi
10:51 AM88 °FBroken clouds.5 mph59%30.01 "Hg10 mi
9:51 AM84 °FBroken clouds.3 mph74%30.01 "Hg10 mi
8:51 AM80 °FPartly sunny.No wind85%30.01 "Hg10 mi
7:51 AM77 °FPartly sunny.No wind90%29.99 "Hg9 mi
6:51 AM76 °FPassing clouds.3 mph94%29.98 "Hg10 mi
5:51 AM77 °FPassing clouds.6 mph90%29.96 "Hg10 mi
4:51 AM78 °FPassing clouds.6 mph87%29.96 "Hg10 mi
3:51 AM79 °FPassing clouds.5 mph88%29.97 "Hg10 mi
2:51 AM78 °FPartly cloudy.No wind90%29.98 "Hg10 mi
1:51 AM80 °FPartly cloudy.3 mph87%29.99 "Hg10 mi
12:51 AM81 °FPassing clouds.5 mph85%29.99 "Hg10 mi
11:51 PM
Jul 23
81 °FPassing clouds.8 mph82%30.00 "Hg10 mi
10:51 PM82 °FPassing clouds.8 mph82%30.00 "Hg10 mi
9:51 PM82 °FPassing clouds.8 mph77%29.97 "Hg10 mi
Weather by CustomWeather, © 2014

See weather overviewHow to use our weather pages